Date String (YYYY-MM-DD hh:mm:ss) UTC,Instrument flags,Ambient pressure (hPa),Sample flow (lpm),Bypass flow (lpm),Sample temperature (°C),Ambient temperature (°C),ASC tube jacket temperature (°C),LED temperature (°C),Box temperature (°C),Sample RH (%),Span deviation,Mass concentration (μg/m³),Mass concentration (μg/m³),Mass concentration (μg/m³)
DateTimeUTC,F1_M11,P_M11,Q1_M11,Q2_M11,T1_M11,T2_M11,T3_M11,T4_M11,T5_M11,U1_M11,ZSPAN_M11,X0_M11,X2_M11,X1_M11
2022-11-03 13:00:00,,0819.4,5.00,0.00,26.1,24.5,00.0,34.9,28.0,13.0,0000.0,0023.63,0004.53,0002.12
2022-11-03 13:01:00,,0819.4,5.01,0.00,26.1,24.5,00.0,34.9,28.0,13.0,0000.0,0022.76,0004.45,0002.12
2022-11-03 13:02:00,,0819.4,5.00,0.00,26.1,24.5,00.0,34.9,28.0,12.9,0000.0,0023.00,0004.40,0002.11
2022-11-03 13:03:00,,0819.4,5.00,0.00,26.1,24.5,00.0,34.9,28.0,13.0,0000.0,0022.58,0004.38,0002.09
2022-11-03 13:04:00,,0819.5,5.00,0.00,26.1,24.5,00.0,34.9,28.0,13.0,0000.0,0023.25,0004.43,0002.09
2022-11-03 13:05:00,,0819.6,5.00,0.00,26.1,24.5,00.0,34.9,28.0,13.0,0000.0,0022.56,0004.48,0002.08
2022-11-03 13:06:00,,0819.6,5.00,0.00,26.1,24.5,00.0,34.9,28.0,12.9,0000.0,0022.17,0004.45,0002.09
2022-11-03 13:07:00,,0819.6,5.01,0.00,26.1,24.5,00.0,34.9,28.0,12.9,0000.0,0023.74,0004.54,0002.09
2022-11-03 13:08:00,,0819.6,4.98,0.00,26.1,24.5,00.0,34.9,28.0,12.9,0000.0,0024.27,0004.66,0002.09
2022-11-03 13:09:00,,0819.5,5.00,0.00,26.1,24.5,00.0,34.9,28.0,12.9,0000.0,0024.99,0004.72,0002.11
2022-11-03 13:10:00,,0819.5,5.00,0.00,26.1,24.5,00.0,34.9,28.0,13.0,0000.0,0025.84,0004.80,0002.13
2022-11-03 13:11:00,,0819.5,5.00,0.00,26.1,24.5,00.0,34.9,28.0,13.0,0000.0,0026.03,0004.84,0002.14
2022-11-03 13:12:00,,0819.5,5.01,0.00,26.1,24.5,00.0,34.9,28.0,13.0,0000.0,0027.60,0004.92,0002.15
2022-11-03 13:13:00,,0819.5,4.99,0.00,26.1,24.5,00.0,34.9,28.0,13.0,0000.0,0027.54,0004.95,0002.16
2022-11-03 13:14:00,,0819.5,4.99,0.00,26.1,24.5,00.0,34.9,28.0,13.1,0000.0,0027.48,0004.95,0002.17
2022-11-03 13:15:00,,0819.5,5.00,0.00,26.1,24.5,00.0,34.9,28.0,13.1,0000.0,0027.71,0004.91,0002.16
2022-11-03 13:16:00,,0819.5,5.00,0.00,26.1,24.4,00.0,34.9,28.0,13.1,0000.0,0028.48,0004.87,0002.16
2022-11-03 13:17:00,,0819.4,5.01,0.00,26.1,24.4,00.0,34.9,28.0,13.1,0000.0,0028.44,0004.82,0002.15
2022-11-03 13:18:00,,0819.4,5.00,0.00,26.1,24.4,00.0,34.9,28.0,13.2,0000.0,0028.22,0004.73,0002.14
2022-11-03 13:19:00,,0819.4,4.98,0.00,26.0,24.4,00.0,34.9,27.9,13.2,0000.0,0026.78,0004.70,0002.13
2022-11-03 13:20:00,,0819.4,5.00,0.00,26.0,24.3,00.0,34.9,27.9,13.2,0000.0,0027.83,0004.67,0002.13
2022-11-03 13:21:00,,0819.4,5.01,0.00,26.0,24.3,00.0,34.9,27.9,13.2,0000.0,0028.22,0004.63,0002.13
2022-11-03 13:22:00,,0819.4,4.99,0.00,26.0,24.3,00.0,34.8,27.9,13.2,0000.0,0027.84,0004.70,0002.13
2022-11-03 13:23:00,,0819.4,4.99,0.00,26.0,24.3,00.0,34.8,27.9,13.3,0000.0,0029.10,0004.67,0002.12
2022-11-03 13:24:00,,0819.4,5.00,0.00,26.0,24.3,00.0,34.8,27.9,13.3,0000.0,0029.47,0004.63,0002.11
2022-11-03 13:25:00,,0819.4,5.01,0.00,26.0,24.2,00.0,34.8,27.8,13.3,0000.0,0030.37,0004.54,0002.10
2022-11-03 13:26:00,,0819.4,4.99,0.00,26.0,24.2,00.0,34.8,27.8,13.3,0000.0,0030.25,0004.49,0002.10
2022-11-03 13:27:00,,0819.5,4.99,0.00,25.9,24.2,00.0,34.8,27.8,13.4,0000.0,0029.48,0004.52,0002.09
2022-11-03 13:28:00,,0819.6,5.01,0.00,25.9,24.2,00.0,34.8,27.8,13.5,0000.0,0029.64,0004.62,0002.10
2022-11-03 13:29:00,,0819.7,5.00,0.00,25.9,24.2,00.0,34.8,27.8,13.5,0000.0,0028.95,0004.75,0002.12
2022-11-03 13:30:00,,0819.8,5.01,0.00,25.9,24.2,00.0,34.7,27.8,13.4,0000.0,0029.14,0004.78,0002.14
2022-11-03 13:31:00,,0819.9,4.98,0.00,25.9,24.2,00.0,34.7,27.8,13.4,0000.0,0027.91,0004.83,0002.15
2022-11-03 13:32:00,,0820.0,5.00,0.00,25.9,24.2,00.0,34.7,27.7,13.5,0000.0,0026.28,0004.82,0002.14
2022-11-03 13:33:00,,0819.9,5.01,0.00,25.9,24.2,00.0,34.7,27.7,13.5,0000.0,0026.24,0004.77,0002.14
2022-11-03 13:34:00,,0820.0,4.99,0.00,25.8,24.2,00.0,34.7,27.7,13.5,0000.0,0024.42,0004.75,0002.15
2022-11-03 13:35:00,,0820.0,5.00,0.00,25.8,24.2,00.0,34.7,27.7,13.5,0000.0,0024.52,0004.78,0002.16
2022-11-03 13:36:00,,0820.0,5.01,0.00,25.8,24.2,00.0,34.7,27.7,13.5,0000.0,0025.12,0004.81,0002.17
2022-11-03 13:37:00,,0820.1,5.00,0.00,25.8,24.1,00.0,34.7,27.7,13.5,0000.0,0025.70,0004.88,0002.18
2022-11-03 13:38:00,,0820.0,4.98,0.00,25.8,24.1,00.0,34.7,27.7,13.6,0000.0,0025.68,0004.88,0002.21
2022-11-03 13:39:00,,0820.0,4.99,0.00,25.8,24.1,00.0,34.6,27.6,13.6,0000.0,0025.34,0004.82,0002.21
2022-11-03 13:40:00,,0820.0,5.01,0.00,25.8,24.0,00.0,34.6,27.6,13.6,0000.0,0025.04,0004.80,0002.23
2022-11-03 13:41:00,,0820.0,5.01,0.00,25.7,24.0,00.0,34.6,27.6,13.6,0000.0,0024.12,0004.79,0002.23
2022-11-03 13:42:00,,0820.0,5.00,0.00,25.7,24.0,00.0,34.6,27.6,13.6,0000.0,0024.16,0004.74,0002.25
2022-11-03 13:43:00,,0820.2,5.00,0.00,25.7,23.9,00.0,34.6,27.6,13.7,0000.0,0025.36,0004.78,0002.26
2022-11-03 13:44:00,,0820.3,5.00,0.00,25.7,23.9,00.0,34.6,27.5,13.7,0000.0,0026.08,0004.76,0002.27
2022-11-03 13:45:00,,0820.2,5.00,0.00,25.7,23.9,00.0,34.6,27.5,13.8,0000.0,0026.15,0004.75,0002.28
2022-11-03 13:46:00,,0820.3,4.98,0.00,25.7,23.9,00.0,34.5,27.5,13.8,0000.0,0024.49,0004.73,0002.31
2022-11-03 13:47:00,,0820.4,5.01,0.00,25.6,23.9,00.0,34.5,27.5,13.8,0000.0,0022.71,0004.76,0002.35
2022-11-03 13:48:00,,0820.4,5.00,0.00,25.6,24.0,00.0,34.5,27.5,13.8,0000.0,0022.08,0004.71,0002.38
2022-11-03 13:49:00,,0820.4,4.99,0.00,25.6,24.0,00.0,34.5,27.5,13.8,0000.0,0021.58,0004.64,0002.40
2022-11-03 13:50:00,,0820.3,5.01,0.00,25.6,24.0,00.0,34.5,27.5,13.8,0000.0,0021.21,0004.63,0002.43
2022-11-03 13:51:00,,0820.2,5.00,0.00,25.6,24.0,00.0,34.5,27.5,13.8,0000.0,0020.84,0004.57,0002.44
2022-11-03 13:52:00,,0820.2,4.99,0.00,25.6,24.0,00.0,34.5,27.5,13.8,0000.0,0021.03,0004.51,0002.47
2022-11-03 13:53:00,,0820.2,4.99,0.00,25.6,23.9,00.0,34.5,27.5,13.8,0000.0,0021.11,0004.49,0002.47
2022-11-03 13:54:00,,0820.1,5.00,0.00,25.6,23.9,00.0,34.5,27.5,13.9,0000.0,0021.27,0004.44,0002.48
2022-11-03 13:55:00,,0820.1,5.01,0.00,25.6,23.8,00.0,34.5,27.4,13.9,0000.0,0020.28,0004.40,0002.49
2022-11-03 13:56:00,,0820.2,5.00,0.00,25.5,23.8,00.0,34.4,27.4,13.9,0000.0,0020.06,0004.42,0002.51
2022-11-03 13:57:00,,0820.2,5.00,0.00,25.5,23.8,00.0,34.4,27.4,13.9,0000.0,0022.06,0004.45,0002.52
2022-11-03 13:58:00,,0820.2,4.99,0.00,25.5,23.8,00.0,34.4,27.4,13.9,0000.0,0021.84,0004.47,0002.50
2022-11-03 13:59:00,,0820.2,5.01,0.00,25.5,23.7,00.0,34.4,27.4,13.9,0000.0,0022.63,0004.53,0002.50
